Berwick, IA

6:06 PM CDT on August 24, 2016 (GMT -0500)
Ankeny Regional

Weather History for KIKV - May, 2014

Change the Weather History Date:

Friday, May 9, 2014

  Actual Average (KDSM) Record (KDSM)
Temperature  
Mean Temperature 56 °F 60 °F  
Max Temperature 66 °F 70 °F 94 °F (1895)
Min Temperature 50 °F 50 °F 32 °F (1923)
Degree Days  
Heating Degree Days 9 6  
Month to date heating degree days 64  
Since 1 July heating degree days 6103  
Cooling Degree Days 0 1  
Month to date cooling degree days 9  
Year to date cooling degree days 23  
Growing Degree Days 6 (Base 50)    
Moisture  
Dew Point 44 °F    
Average Humidity 69    
Maximum Humidity 77    
Minimum Humidity 46    
Precipitation  
Precipitation 0.00 in 0.16 in 3.23 in (1996)
Month to date precipitation 1.38  
Year to date precipitation 9.82  
Snow  
Snow 0.00 in 0.00 in T in (1945)
Month to date snowfall 0.0  
Since 1 July snowfall 35.3  
Snow Depth -    
Sea Level Pressure  
Sea Level Pressure 29.78 in    
Wind  
Wind Speed 15 mph (West)    
Max Wind Speed 21 mph    
Max Gust Speed 29 mph    
Visibility 10 miles    
Events      
T = Trace of Precipitation, MM = Missing Value Source: NWS Daily Summary

Daily Weather History Graph

Daily Weather History Graph

Search for Another Location

Airport or City:

Trip Planner

Search our weather history database for the weather conditions in past years. The results will help you decide how hot, cold, wet, or windy it might be!

Date:

Astronomy

May. 09, 2014 Rise Set
Actual Time 6:00 AM CDT 8:21 PM CDT
Civil Twilight 5:29 AM CDT 8:52 PM CDT
Nautical Twilight 4:51 AM CDT 9:30 PM CDT
Astronomical Twilight 4:09 AM CDT 10:13 PM CDT
Moon 3:14 PM CDT (5/9) 3:08 AM CDT (5/9)
Length of Visible Light 15h 22m
Length of Day
14h 20m
Waxing Gibbous, 74% of the Moon is Illuminated
May 9
Waxing Gibbous
May 14
Full
May 21
Last Quarter
May 28
New
Jun 5
First Quarter

Hourly Weather History & Observations

Time (CDT) Temp. Dew Point Humidity Pressure Visibility Wind Dir Wind Speed Gust Speed Precip Events Conditions
12:15 AM 57.2 °F 50.0 °F 77% 29.71 in 10.0 mi WNW 15.0 mph 26.5 mph N/A   Clear
12:35 AM 57.2 °F 50.0 °F 77% 29.72 in 10.0 mi West 13.8 mph 21.9 mph N/A   Partly Cloudy
12:55 AM 57.2 °F 48.2 °F 72% 29.71 in 10.0 mi West 18.4 mph - N/A   Clear
1:15 AM 55.4 °F 48.2 °F 77% 29.71 in 10.0 mi West 17.3 mph - N/A   Clear
1:35 AM 53.6 °F 44.6 °F 72% 29.70 in 10.0 mi WNW 16.1 mph 28.8 mph N/A   Clear
1:55 AM 53.6 °F 44.6 °F 72% 29.70 in 10.0 mi West 19.6 mph 27.6 mph N/A   Clear
2:15 AM 51.8 °F 44.6 °F 76% 29.70 in 10.0 mi West 20.7 mph - N/A   Clear
2:35 AM 51.8 °F 44.6 °F 76% 29.71 in 10.0 mi West 13.8 mph 21.9 mph N/A   Partly Cloudy
2:55 AM 51.8 °F 44.6 °F 76% 29.71 in 10.0 mi West 10.4 mph 16.1 mph N/A   Scattered Clouds
3:15 AM 51.8 °F 44.6 °F 76% 29.71 in 10.0 mi West 15.0 mph 20.7 mph N/A   Overcast
3:35 AM 53.6 °F 44.6 °F 72% 29.72 in 10.0 mi West 18.4 mph - N/A   Overcast
3:55 AM 51.8 °F 42.8 °F 71% 29.72 in 10.0 mi West 19.6 mph 28.8 mph N/A   Mostly Cloudy
4:15 AM 50.0 °F 42.8 °F 76% 29.73 in 10.0 mi West 15.0 mph 21.9 mph N/A   Mostly Cloudy
4:35 AM 50.0 °F 42.8 °F 76% 29.73 in 10.0 mi West 15.0 mph 21.9 mph N/A   Mostly Cloudy
4:55 AM 50.0 °F 42.8 °F 76% 29.75 in 10.0 mi West 11.5 mph 19.6 mph N/A   Mostly Cloudy
5:15 AM 50.0 °F 42.8 °F 76% 29.76 in 10.0 mi West 11.5 mph 20.7 mph N/A   Scattered Clouds
5:35 AM 50.0 °F 42.8 °F 76% 29.76 in 10.0 mi West 12.7 mph - N/A   Overcast
5:55 AM 50.0 °F 42.8 °F 76% 29.77 in 10.0 mi West 8.1 mph 15.0 mph N/A   Overcast
6:15 AM 51.8 °F 42.8 °F 71% 29.78 in 10.0 mi West 6.9 mph 16.1 mph N/A   Overcast
6:35 AM 51.8 °F 42.8 °F 71% 29.78 in - West 16.1 mph - N/A   Overcast
6:55 AM 51.8 °F 42.8 °F 71% 29.79 in 10.0 mi West 12.7 mph 18.4 mph N/A   Overcast
7:15 AM 51.8 °F 42.8 °F 71% 29.79 in 10.0 mi West 16.1 mph - N/A   Overcast
7:35 AM 51.8 °F 42.8 °F 71% 29.79 in 10.0 mi WNW 16.1 mph - N/A   Overcast
7:55 AM 51.8 °F 42.8 °F 71% 29.80 in 10.0 mi West 10.4 mph 17.3 mph N/A   Overcast
8:15 AM 51.8 °F 44.6 °F 76% 29.80 in 10.0 mi West 10.4 mph 17.3 mph N/A   Overcast
8:35 AM 51.8 °F 42.8 °F 71% 29.80 in 10.0 mi West 15.0 mph 20.7 mph N/A   Overcast
8:55 AM 51.8 °F 42.8 °F 71% 29.80 in 10.0 mi WNW 20.7 mph - N/A   Overcast
9:20 AM - - N/A% 29.81 in - WNW 17.3 mph 24.2 mph N/A   Unknown
9:35 AM 51.8 °F 42.8 °F 71% 29.81 in 10.0 mi WNW 17.3 mph - N/A   Unknown
9:55 AM 51.8 °F 42.8 °F 71% 29.82 in 10.0 mi West 20.7 mph - N/A   Overcast
10:15 AM 51.8 °F 42.8 °F 71% 29.82 in 10.0 mi West 17.3 mph - N/A   Overcast
10:35 AM 51.8 °F 42.8 °F 71% 29.82 in 10.0 mi WNW 13.8 mph 21.9 mph N/A   Overcast
11:15 AM 53.6 °F 42.8 °F 67% 29.82 in 10.0 mi West 13.8 mph 24.2 mph N/A   Overcast
11:35 AM 53.6 °F 42.8 °F 67% 29.83 in 10.0 mi West 12.7 mph - N/A   Overcast
11:55 AM 53.6 °F 42.8 °F 67% 29.83 in 10.0 mi West 15.0 mph - N/A   Overcast
12:15 PM 53.6 °F 42.8 °F 67% 29.83 in 10.0 mi WNW 15.0 mph - N/A   Overcast
12:35 PM 55.4 °F 44.6 °F 67% 29.83 in 10.0 mi WNW 9.2 mph 16.1 mph N/A   Overcast
12:55 PM 57.2 °F 44.6 °F 63% 29.83 in 10.0 mi WSW 13.8 mph - N/A   Overcast
1:15 PM 57.2 °F 44.6 °F 63% 29.82 in 10.0 mi West 12.7 mph - N/A   Overcast
1:35 PM 59.0 °F 44.6 °F 59% 29.82 in 10.0 mi West 12.7 mph 20.7 mph N/A   Overcast
1:55 PM 60.8 °F 44.6 °F 55% 29.81 in 10.0 mi West 12.7 mph 19.6 mph N/A   Overcast
2:15 PM 60.8 °F 44.6 °F 55% 29.81 in 10.0 mi WNW 12.7 mph 20.7 mph N/A   Overcast
2:35 PM 60.8 °F 44.6 °F 55% 29.81 in 10.0 mi WNW 11.5 mph 19.6 mph N/A   Mostly Cloudy
2:55 PM 62.6 °F 44.6 °F 52% 29.80 in 10.0 mi WNW 12.7 mph - N/A   Mostly Cloudy
3:15 PM 62.6 °F 44.6 °F 52% 29.80 in 10.0 mi West 9.2 mph 17.3 mph N/A   Mostly Cloudy
3:35 PM 66.2 °F 44.6 °F 46% 29.80 in 10.0 mi West 15.0 mph 23.0 mph N/A   Mostly Cloudy
3:55 PM - - N/A% 29.80 in 10.0 mi West 12.7 mph - N/A   Scattered Clouds